Погода в Ерокко

Россия / Кабардино-Балкарская Республика     43°19′01″N   43°52′43″E
темп.,
°C
ветер,
м/с
пор.,
м/с
влажн.,
%
обл.,
%
осадки,
мм/ч
давл.,
гПа
погр.,
м
19 июня, сб
сб1900:00+16юз22880 0.0 101719
03:00+16юз228540 0.0 101720
06:00+18ююз118020 0.0 101658
09:00+23в236846 0.0 1015646
12:00+26в3460100 0.0 10141324
15:00+27вюв24556 0.0 10131372
18:00+27ссв136718 0.0 1012639
21:00+19юз117012 0.0 101411
20 июня, вс
вс2000:00+17зсз1173100 0.0 101311
03:00+16з117493 0.0 101311
06:00+17ссз1176100 0.0 101260
09:00+20с1170100 0.0 1012271
12:00+24ссв21625 0.0 1012553
15:00+27ссв11550 0.0 1011782
18:00+26ссз11660 0.0 1011414
21:00+20зюз22800 0.0 101316
21 июня, пн
пн2100:00+19зюз22782 0.0 101211
03:00+17зюз11800 0.0 101211
06:00+20зюз11780 0.0 101244
09:00+25всв22670 0.0 1012496
12:00+28всв23570 0.0 10111027
15:00+29всв22520 0.0 10101290
18:00+28с12670 0.0 1009260
21:00+22з227980 0.0 101118
22 июня, вт
вт2200:00+20сз117263 0.0 101111
03:00+17сз11690 0.0 101211
06:00+19зсз11700 0.0 101243
09:00+24всв11570 0.0 1012387
12:00+27всв22500 0.0 1012714
15:00+29св12472 0.0 1011899
18:00+28ссз116427 0.0 1011260
21:00+22з227388 0.0 101212
23 июня, ср
ср2300:00+20юз226761 0.0 101122
03:00+19з11655 0.0 101111
06:00+20зсз11720 0.0 101139
09:00+25св21620 0.0 1011476
12:00+27с32540 0.0 1013893
15:00+28с22510 0.0 10121143
18:00+27сз23660 0.0 1013347
21:00+22зюз22810 0.0 101422